This demonstration page uses our WeatherBlox Daily Observations layout. Learn more.

Left ArrowRight Arrow

41.12389, -100.76542

Hourly Observations for November 7, 2015

Temp ( °F °C ) Dew Point ( °F °C ) Humidity (%) Winds ( mph kmh ) Pressure ( in mb ) Visibility ( mi km ) Precip ( " mm )
12:00 am 00:00 Clear 27 -3 23 -5 86 86 NW 5 7 30.50 1033 10 16 0.00 0.00
12:53 am 00:53 Clear 24 -4.4 22 -5.6 91 91 NW 6 9 30.42 1030 10 16 0.00 0.00
1:53 am 01:53 Clear 24 -4.4 22 -5.6 91 91 NW 6 9 30.42 1030 10 16 0.00 0.00
2:53 am 02:53 Clear 23 -5 21 -6.1 92 92 NW 7 11 30.43 1031 10 16 0.00 0.00
3:53 am 03:53 Clear 24 -4.4 21 -6.1 88 88 Calm 30.43 1031 10 16 0.00 0.00
4:53 am 04:53 Clear 22 -5.6 20 -6.7 92 92 Calm 30.44 1031 10 16 0.00 0.00
5:53 am 05:53 Clear with Mist and Fog 22 -5.6 20 -6.7 92 92 NW 3 6 30.46 1031 6 10 0.00 0.00
6:11 am 06:11 Clear with Mist and Fog 20 -6.7 18 -7.8 92 92 WNW 5 7 30.59 1036 3 5 0.00 0.00
6:53 am 06:53 Clear 21 -6.1 19 -7.2 92 92 Calm 30.46 1032 10 16 0.00 0.00
7:53 am 07:53 Sunny 22 -5.6 20 -6.7 92 92 Calm 30.48 1032 10 16 0.00 0.00
8:53 am 08:53 Sunny 30 -1.1 26 -3.3 85 85 Calm 30.48 1032 10 16 0.00 0.00
9:53 am 09:53 Sunny 36 2.2 31 -0.6 82 82 W 6 9 30.48 1032 10 16 0.00 0.00
10:53 am 10:53 Sunny 44 6.7 35 1.7 71 71 VRB 6 9 30.46 1031 10 16 0.00 0.00
11:53 am 11:53 Sunny 49 9.4 34 1.1 56 56 SW 8 13 30.43 1031 10 16 0.00 0.00
12:53 pm 12:53 Sunny 52 11.1 30 -1.1 43 43 SSW 12 19 30.40 1029 10 16 0.00 0.00
1:53 pm 13:53 Sunny 54 12.2 28 -2.2 37 37 SW 10 17 30.36 1028 10 16 0.00 0.00
2:53 pm 14:53 Sunny 55 12.8 26 -3.3 33 33 SW 13 20 30.34 1027 10 16 0.00 0.00
3:53 pm 15:53 Sunny 55 12.8 26 -3.3 33 33 SW 14 22 30.32 1027 10 16 0.00 0.00
4:53 pm 16:53 Sunny 53 11.7 28 -2.2 38 38 SSW 9 15 30.32 1027 10 16 0.00 0.00
5:53 pm 17:53 Clear 46 7.8 27 -2.8 47 47 S 7 11 30.32 1027 10 16 0.00 0.00
6:53 pm 18:53 Clear 39 3.9 28 -2.2 65 65 S 6 9 30.33 1027 10 16 0.00 0.00
7:53 pm 19:53 Clear 37 2.8 28 -2.2 70 70 SSE 3 6 30.33 1027 10 16 0.00 0.00
8:53 pm 20:53 Clear 41 5 29 -1.7 62 62 S 9 15 30.30 1026 10 16 0.00 0.00
9:53 pm 21:53 Clear 40 4.4 29 -1.7 65 65 S 10 17 30.28 1026 10 16 0.00 0.00
10:53 pm 22:53 Clear 40 4.4 30 -1.1 68 68 S 13 20 30.26 1025 10 16 0.00 0.00
11:53 pm 23:53 Clear 40 4.4 30 -1.1 68 68 S 12 19 30.23 1024 10 16 0.00 0.00

Powered by AerisWeather